Weather in Arad

Israel     31°15′29″N   35°12′34″E
temp.,
°C
wind,
m/s
gust,
m/s
humid.,
%
clouds,
%
prec.,
mm/h
press.,
hPa
HPBL,
m
13 april, tue
tue1300:00+12nw11590 0.0 102118
03:00+11wnw01640 0.0 102010
06:00+10se01690 0.0 102010
09:00+13ene12560 0.0 1021556
12:00+18ene22350 0.0 1020940
15:00+21e22265 0.0 10181014
18:00+20nne443245 0.0 1017687
21:00+17n2344100 0.0 1019140
14 april, wed
wed1400:00+15wnw01507 0.0 101918
03:00+13wsw01550 0.0 101911
06:00+12nw11600 0.0 101910
09:00+17nne23350 0.0 1020377
12:00+22ne33195 0.0 1018686
15:00+25ene32134 0.0 1015887
18:00+25ne34156 0.0 1014576
21:00+21nnw22325 0.0 101616
15 april, thu
thu1500:00+19wnw114187 0.0 101611
03:00+17wnw22454 0.0 101611
06:00+16n014728 0.0 101611
09:00+21ne35250 0.0 1016339
12:00+27ne44150 0.0 1015779
15:00+30ne43120 0.0 10131457
18:00+29n55145 0.0 10121134
21:00
16 april, fri
fri1600:00+21wnw1126100 0.0 101411
03:00+20nw2226100 0.0 101311
06:00+19nne112963 0.0 101311
09:00+24ne352295 0.0 1014376
12:00+28ne3416100 0.0 1013902
15:00+29ene3414100 0.0 10121343
18:00+29n56204 0.0 10111059
21:00+24nw33273 0.0 101338
17 april, sat
sat1700:00+22nw22220 0.0 101311
03:00+20wnw11240 0.0 101311
06:00+19wsw22274 0.0 101311
09:00+23ese21210 0.0 1014270
12:00+28ese22162 0.0 1013806
15:00+32ese13125 0.0 10111451
18:00+30ne23165 0.0 1012580
21:00+26nw22286 0.0 101415